SAS7321 ENBR-LGSR

Flight info

Callsign SAS7321
Flight time 4h 0m
Altitude 35000
Route TINIG DCT KOSEB DCT RODEP DCT RENKI DCT SUBIX T710 OLUMA Y210 PEKOT/N0443F370 DCT VALPI DCT NIT DCT ERGOM DCT KEROP DCT TISAK DCT RAXAD DCT MAKED UL617 MIL
Aircraft A320/M-SDE3FGHIRWY/LB1

Departure

Time 2026-04-23 06:32
Airport Bergen Airport, Flesland (ENBR)

Arrival

Time 2026-04-23 10:32
Airport Santorini International Airport (LGSR)
Time Latitude Longitude Altitude Speed Heading
2026-04-23 06:11 60.28965 5.22568 162 ft 0 kts 144°
2026-04-23 06:21 60.28973 5.22556 162 ft 4 kts 143°
2026-04-23 06:21 60.28995 5.22523 162 ft 4 kts 142°
2026-04-23 06:22 60.29017 5.22491 162 ft 4 kts 153°
2026-04-23 06:22 60.29035 5.22478 162 ft 4 kts 236°
2026-04-23 06:22 60.29038 5.22482 162 ft 0 kts 262°
2026-04-23 06:25 60.29037 5.22466 163 ft 5 kts 263°
2026-04-23 06:25 60.29023 5.22400 162 ft 5 kts 229°
2026-04-23 06:25 60.28976 5.22376 162 ft 9 kts 181°
2026-04-23 06:25 60.28928 5.22303 162 ft 9 kts 227°
2026-04-23 06:26 60.28868 5.22297 161 ft 9 kts 170°
2026-04-23 06:26 60.28789 5.22324 160 ft 13 kts 170°
2026-04-23 06:26 60.28701 5.22354 160 ft 13 kts 170°
2026-04-23 06:26 60.28608 5.22385 159 ft 14 kts 171°
2026-04-23 06:27 60.28509 5.22418 158 ft 15 kts 171°
2026-04-23 06:27 60.28401 5.22452 157 ft 16 kts 171°
2026-04-23 06:27 60.28284 5.22487 156 ft 18 kts 171°
2026-04-23 06:27 60.28169 5.22526 155 ft 10 kts 169°
2026-04-23 06:28 60.28106 5.22544 155 ft 10 kts 179°
2026-04-23 06:28 60.28066 5.22500 154 ft 7 kts 234°
2026-04-23 06:28 60.28060 5.22465 154 ft 2 kts 257°
2026-04-23 06:28 60.28059 5.22451 154 ft 0 kts 258°
2026-04-23 06:29 60.28059 5.22446 154 ft 1 kts 258°
2026-04-23 06:29 60.28058 5.22437 154 ft 0 kts 259°
2026-04-23 06:29 60.28055 5.22412 153 ft 4 kts 259°
2026-04-23 06:30 60.28047 5.22323 151 ft 10 kts 259°
2026-04-23 06:30 60.28068 5.22249 152 ft 0 kts 338°
2026-04-23 06:30 60.28069 5.22249 152 ft 0 kts 343°
2026-04-23 06:30 60.28071 5.22248 152 ft 6 kts 344°
2026-04-23 06:31 60.28352 5.22146 158 ft 73 kts 350°
2026-04-23 06:31 60.29034 5.21915 163 ft 123 kts 351°
2026-04-23 06:31 60.29990 5.21593 306 ft 147 kts 350°
2026-04-23 06:31 60.31025 5.21274 753 ft 157 kts 349°
2026-04-23 06:32 60.32146 5.20890 1352 ft 165 kts 348°
2026-04-23 06:32 60.33259 5.20398 1921 ft 167 kts 348°
2026-04-23 06:32 60.34412 5.19903 2408 ft 173 kts 351°
2026-04-23 06:32 60.35648 5.19529 2759 ft 188 kts 352°
2026-04-23 06:33 60.36993 5.19139 3204 ft 202 kts 352°
2026-04-23 06:33 60.38464 5.18689 3550 ft 225 kts 351°
2026-04-23 06:33 60.40070 5.18171 4083 ft 239 kts 351°
2026-04-23 06:33 60.41725 5.17626 4893 ft 242 kts 350°
2026-04-23 06:34 60.43392 5.17072 5750 ft 244 kts 350°
2026-04-23 06:34 60.45081 5.16507 6555 ft 247 kts 349°
2026-04-23 06:34 60.46809 5.16215 7284 ft 254 kts
2026-04-23 06:34 60.48478 5.17519 7961 ft 267 kts 33°
2026-04-23 06:35 60.49655 5.20514 8623 ft 284 kts 64°
2026-04-23 06:35 60.50091 5.24498 9303 ft 296 kts 82°
2026-04-23 06:35 60.49853 5.28704 9980 ft 308 kts 107°
2026-04-23 06:35 60.48770 5.32481 10598 ft 316 kts 133°
2026-04-23 06:36 60.47099 5.35590 10789 ft 338 kts 137°
2026-04-23 06:36 60.45380 5.39079 10918 ft 360 kts 133°
2026-04-23 06:36 60.43690 5.42909 11305 ft 369 kts 130°
2026-04-23 06:36 60.42005 5.46865 11440 ft 371 kts 130°
2026-04-23 06:37 60.40316 5.50805 11534 ft 371 kts 131°
2026-04-23 06:37 60.38602 5.54708 11532 ft 371 kts 131°
2026-04-23 06:37 60.36865 5.58569 11528 ft 371 kts 132°
2026-04-23 06:37 60.35112 5.62399 11525 ft 371 kts 133°
2026-04-23 06:38 60.33354 5.66197 11523 ft 371 kts 133°
2026-04-23 06:38 60.31587 5.69999 11518 ft 371 kts 133°
2026-04-23 06:38 60.29820 5.73799 11513 ft 371 kts 133°
2026-04-23 06:38 60.28055 5.77595 11512 ft 371 kts 133°
2026-04-23 06:39 60.26314 5.81334 11509 ft 371 kts 133°
2026-04-23 06:39 60.24532 5.85155 12007 ft 375 kts 133°
2026-04-23 06:39 60.22744 5.88985 12696 ft 376 kts 133°
2026-04-23 06:39 60.20947 5.92835 13361 ft 378 kts 133°
2026-04-23 06:40 60.19140 5.96709 13989 ft 380 kts 133°
2026-04-23 06:40 60.17325 6.00601 14577 ft 383 kts 133°
2026-04-23 06:40 60.15499 6.04510 15124 ft 385 kts 133°
2026-04-23 06:40 60.13658 6.08434 15677 ft 387 kts 133°
2026-04-23 06:41 60.11805 6.12366 16219 ft 389 kts 133°
2026-04-23 06:41 60.09936 6.16319 16753 ft 392 kts 134°
2026-04-23 06:41 60.08055 6.20293 17297 ft 394 kts 134°
2026-04-23 06:41 60.06162 6.24290 17854 ft 397 kts 134°
2026-04-23 06:42 60.04252 6.28311 18394 ft 400 kts 134°
2026-04-23 06:42 60.02329 6.32358 18898 ft 403 kts 134°
2026-04-23 06:42 60.00262 6.36167 19368 ft 406 kts 143°
2026-04-23 06:42 59.97959 6.39474 19861 ft 409 kts 145°
2026-04-23 06:43 59.95637 6.42758 20354 ft 411 kts 145°
2026-04-23 06:43 59.93286 6.46072 20859 ft 414 kts 145°
2026-04-23 06:43 59.90925 6.49399 21343 ft 417 kts 145°
2026-04-23 06:43 59.88548 6.52752 21820 ft 420 kts 145°
2026-04-23 06:44 59.86161 6.56122 22273 ft 423 kts 145°
2026-04-23 06:44 59.83753 6.59520 22718 ft 425 kts 145°
2026-04-23 06:44 59.81330 6.62923 23155 ft 428 kts 145°
2026-04-23 06:44 59.78893 6.66336 23584 ft 431 kts 145°
2026-04-23 06:45 59.76430 6.69781 24003 ft 433 kts 145°
2026-04-23 06:45 59.73962 6.73231 24368 ft 435 kts 145°
2026-04-23 06:45 59.71480 6.76689 24737 ft 437 kts 146°
2026-04-23 06:45 59.68990 6.80143 25109 ft 438 kts 146°
2026-04-23 06:46 59.66493 6.83602 25466 ft 439 kts 146°
2026-04-23 06:46 59.64021 6.87025 25822 ft 440 kts 146°
2026-04-23 06:46 59.61508 6.90502 26172 ft 442 kts 146°
2026-04-23 06:46 59.58990 6.93983 26512 ft 443 kts 146°
2026-04-23 06:47 59.56459 6.97476 26857 ft 444 kts 146°
2026-04-23 06:47 59.53921 7.00968 27206 ft 446 kts 146°
2026-04-23 06:47 59.51372 7.04469 27539 ft 447 kts 146°
2026-04-23 06:47 59.48814 7.07979 27867 ft 449 kts 146°
2026-04-23 06:48 59.46250 7.11488 28200 ft 450 kts 146°
2026-04-23 06:48 59.43678 7.15001 28616 ft 449 kts 146°
2026-04-23 06:48 59.41113 7.18498 29100 ft 447 kts 146°
2026-04-23 06:48 59.38563 7.21965 29597 ft 445 kts 146°
2026-04-23 06:49 59.36023 7.25412 30076 ft 443 kts 147°
2026-04-23 06:49 59.33493 7.28841 30541 ft 441 kts 147°
2026-04-23 06:49 59.30972 7.32250 30921 ft 440 kts 147°
2026-04-23 06:49 59.28451 7.35653 31310 ft 439 kts 147°
2026-04-23 06:50 59.25941 7.39032 31679 ft 438 kts 147°
2026-04-23 06:50 59.23438 7.42397 32056 ft 437 kts 146°
2026-04-23 06:50 59.20935 7.45757 32440 ft 436 kts 146°
2026-04-23 06:50 59.18439 7.49107 32825 ft 435 kts 146°
2026-04-23 06:51 59.15949 7.52448 33204 ft 434 kts 146°
2026-04-23 06:51 59.13467 7.55770 33587 ft 432 kts 146°
2026-04-23 06:51 59.10992 7.59072 33969 ft 431 kts 146°
2026-04-23 06:51 59.08514 7.62361 34317 ft 431 kts 146°
2026-04-23 06:52 59.06043 7.65636 34616 ft 430 kts 146°
2026-04-23 06:52 59.03574 7.68908 34887 ft 429 kts 146°
2026-04-23 06:52 59.01103 7.72180 35152 ft 429 kts 146°
2026-04-23 06:52 58.98634 7.75440 35293 ft 430 kts 146°
2026-04-23 06:53 58.93692 7.81949 35317 ft 429 kts 146°
2026-04-23 06:53 58.88753 7.88436 35315 ft 429 kts 146°
2026-04-23 06:54 58.83809 7.94916 35309 ft 430 kts 146°
2026-04-23 06:54 58.78854 8.01377 35304 ft 430 kts 146°
2026-04-23 06:55 58.73895 8.07824 35306 ft 431 kts 146°
2026-04-23 06:55 58.68915 8.14267 35304 ft 431 kts 146°
2026-04-23 06:56 58.63937 8.20693 35306 ft 431 kts 146°
2026-04-23 06:56 58.58952 8.27110 35310 ft 431 kts 146°
2026-04-23 06:57 58.53961 8.33494 35310 ft 432 kts 146°
2026-04-23 06:57 58.49000 8.39826 35311 ft 432 kts 146°
2026-04-23 06:58 58.44005 8.46184 35315 ft 431 kts 146°
2026-04-23 06:58 58.39005 8.52532 35316 ft 431 kts 146°
2026-04-23 06:59 58.33971 8.58898 35319 ft 431 kts 146°
2026-04-23 06:59 58.28962 8.65195 35318 ft 432 kts 146°
2026-04-23 07:00 58.23953 8.71476 35312 ft 432 kts 146°
2026-04-23 07:00 58.18933 8.77759 35313 ft 432 kts 146°
2026-04-23 07:01 58.13909 8.84018 35313 ft 432 kts 146°
2026-04-23 07:01 58.08882 8.90272 35312 ft 433 kts 146°
2026-04-23 07:02 58.03845 8.96510 35311 ft 433 kts 146°
2026-04-23 07:02 57.98801 9.02722 35310 ft 433 kts 146°
2026-04-23 07:03 57.93750 9.08925 35307 ft 433 kts 146°
2026-04-23 07:03 57.88703 9.15112 35309 ft 433 kts 146°
2026-04-23 07:04 57.83647 9.21294 35308 ft 433 kts 146°
2026-04-23 07:04 57.78593 9.27463 35308 ft 434 kts 146°
2026-04-23 07:05 57.73531 9.33617 35309 ft 434 kts 146°
2026-04-23 07:05 57.68497 9.39698 35308 ft 434 kts 146°
2026-04-23 07:06 57.63421 9.45794 35303 ft 434 kts 146°
2026-04-23 07:06 57.58340 9.51886 35301 ft 434 kts 146°
2026-04-23 07:07 57.53253 9.57968 35305 ft 434 kts 146°
2026-04-23 07:07 57.48168 9.64030 35301 ft 435 kts 146°
2026-04-23 07:08 57.43902 9.69113 35304 ft 435 kts 146°
2026-04-23 07:08 57.38807 9.75168 35297 ft 435 kts 146°
2026-04-23 07:09 57.33738 9.81164 35300 ft 435 kts 146°
2026-04-23 07:09 57.28633 9.87177 35300 ft 435 kts 146°
2026-04-23 07:10 57.23478 9.93216 35304 ft 436 kts 146°
2026-04-23 07:10 57.18387 9.99152 35300 ft 436 kts 146°
2026-04-23 07:11 57.13263 10.05123 35305 ft 436 kts 146°
2026-04-23 07:12 57.05572 10.14050 35301 ft 436 kts 146°
2026-04-23 07:12 57.00435 10.19985 35295 ft 436 kts 146°
2026-04-23 07:13 56.95294 10.25909 35298 ft 436 kts 146°
2026-04-23 07:13 56.90150 10.31824 35295 ft 437 kts 146°
2026-04-23 07:14 56.85003 10.37730 35298 ft 437 kts 146°
2026-04-23 07:14 56.79845 10.43604 35293 ft 437 kts 146°
2026-04-23 07:15 56.74685 10.49468 35293 ft 437 kts 146°
2026-04-23 07:15 56.69525 10.55327 35293 ft 437 kts 146°
2026-04-23 07:16 56.64355 10.61156 35294 ft 437 kts 146°
2026-04-23 07:16 56.59178 10.66972 35293 ft 437 kts 146°
2026-04-23 07:17 56.54001 10.72787 35300 ft 438 kts 146°
2026-04-23 07:17 56.48822 10.78588 35298 ft 438 kts 146°
2026-04-23 07:18 56.43635 10.84374 35297 ft 438 kts 146°
2026-04-23 07:18 56.38438 10.90140 35298 ft 438 kts 146°
2026-04-23 07:19 56.33274 10.95851 35298 ft 438 kts 146°
2026-04-23 07:19 56.28076 11.01602 35297 ft 439 kts 146°
2026-04-23 07:20 56.22869 11.07334 35294 ft 439 kts 146°
2026-04-23 07:20 56.17658 11.13058 35288 ft 439 kts 146°
2026-04-23 07:21 56.12446 11.18775 35285 ft 439 kts 146°
2026-04-23 07:21 56.07229 11.24471 35283 ft 439 kts 145°
2026-04-23 07:22 56.02003 11.30145 35284 ft 440 kts 145°
2026-04-23 07:22 55.96805 11.35772 35279 ft 440 kts 145°
2026-04-23 07:23 55.91569 11.41419 35280 ft 440 kts 145°
2026-04-23 07:23 55.86327 11.47059 35284 ft 440 kts 145°
2026-04-23 07:24 55.81092 11.52685 35281 ft 440 kts 145°
2026-04-23 07:24 55.75845 11.58298 35279 ft 440 kts 145°
2026-04-23 07:25 55.70603 11.63887 35272 ft 440 kts 145°
2026-04-23 07:25 55.65352 11.69466 35264 ft 440 kts 145°
2026-04-23 07:26 55.60092 11.75030 35262 ft 440 kts 145°
2026-04-23 07:26 55.54831 11.80586 35257 ft 440 kts 145°
2026-04-23 07:27 55.49567 11.86124 35256 ft 441 kts 145°
2026-04-23 07:27 55.44302 11.91658 35256 ft 441 kts 145°
2026-04-23 07:28 55.39029 11.97179 35260 ft 441 kts 145°
2026-04-23 07:28 55.33785 12.02639 35261 ft 441 kts 145°
2026-04-23 07:29 55.28496 12.08112 35263 ft 441 kts 145°
2026-04-23 07:29 55.23208 12.13594 35261 ft 441 kts 145°
2026-04-23 07:30 55.17926 12.19076 35264 ft 442 kts 145°
2026-04-23 07:30 55.12624 12.24541 35353 ft 443 kts 145°
2026-04-23 07:30 55.09974 12.27268 35633 ft 442 kts 145°
2026-04-23 07:31 55.07324 12.29986 35895 ft 442 kts 145°
2026-04-23 07:31 55.04670 12.32702 36153 ft 441 kts 145°
2026-04-23 07:31 55.02022 12.35407 36395 ft 441 kts 145°
2026-04-23 07:31 54.99376 12.38109 36633 ft 441 kts 145°
2026-04-23 07:32 54.96732 12.40799 36864 ft 441 kts 145°
2026-04-23 07:32 54.94087 12.43484 37086 ft 440 kts 145°
2026-04-23 07:32 54.91435 12.46176 37231 ft 441 kts 145°
2026-04-23 07:33 54.86126 12.51571 37255 ft 448 kts 145°
2026-04-23 07:33 54.80723 12.57032 37255 ft 450 kts 145°
2026-04-23 07:34 54.75331 12.62507 37256 ft 449 kts 144°
2026-04-23 07:34 54.70006 12.68190 37256 ft 449 kts 143°
2026-04-23 07:35 54.64713 12.73926 37268 ft 450 kts 143°
2026-04-23 07:35 54.59385 12.79612 37273 ft 451 kts 143°
2026-04-23 07:36 54.54028 12.85245 37276 ft 451 kts 143°
2026-04-23 07:36 54.48671 12.90870 37278 ft 451 kts 143°
2026-04-23 07:37 54.43308 12.96494 37279 ft 452 kts 143°
2026-04-23 07:37 54.37941 13.02114 37283 ft 452 kts 143°
2026-04-23 07:38 54.32569 13.07726 37283 ft 452 kts 143°
2026-04-23 07:38 54.27226 13.13288 37282 ft 452 kts 143°
2026-04-23 07:39 54.21848 13.18883 37282 ft 453 kts 143°
2026-04-23 07:39 54.16458 13.24445 37285 ft 453 kts 143°
2026-04-23 07:40 54.11059 13.29988 37283 ft 453 kts 143°
2026-04-23 07:40 54.05656 13.35531 37284 ft 453 kts 143°
2026-04-23 07:41 54.00246 13.41070 37282 ft 454 kts 143°
2026-04-23 07:41 53.94835 13.46596 37280 ft 454 kts 143°
2026-04-23 07:42 53.89420 13.52114 37281 ft 454 kts 143°
2026-04-23 07:42 53.83988 13.57624 37279 ft 455 kts 143°
2026-04-23 07:43 53.78555 13.63123 37274 ft 455 kts 143°
2026-04-23 07:43 53.73107 13.68616 37277 ft 456 kts 143°
2026-04-23 07:44 53.67348 13.73247 37277 ft 467 kts 158°
2026-04-23 07:44 53.60934 13.75473 37271 ft 472 kts 165°
2026-04-23 07:45 53.54460 13.77417 37271 ft 473 kts 165°
2026-04-23 07:45 53.47980 13.79377 37270 ft 473 kts 165°
2026-04-23 07:46 53.41493 13.81326 37272 ft 474 kts 165°
2026-04-23 07:46 53.34996 13.83270 37270 ft 474 kts 165°
2026-04-23 07:47 53.28498 13.85210 37276 ft 474 kts 165°
2026-04-23 07:47 53.22003 13.87155 37277 ft 474 kts 165°
2026-04-23 07:48 53.15505 13.89091 37276 ft 475 kts 165°
2026-04-23 07:48 53.09002 13.91017 37274 ft 475 kts 165°
2026-04-23 07:49 53.02500 13.92940 37276 ft 475 kts 165°
2026-04-23 07:49 52.96041 13.94858 37277 ft 474 kts 163°
2026-04-23 07:50 52.89936 13.98425 37275 ft 460 kts 145°
2026-04-23 07:50 52.84673 14.04209 37268 ft 453 kts 138°
2026-04-23 07:51 52.79541 14.10267 37267 ft 453 kts 138°
2026-04-23 07:51 52.74403 14.16308 37269 ft 454 kts 138°
2026-04-23 07:52 52.69251 14.22336 37271 ft 454 kts 138°
2026-04-23 07:52 52.64086 14.28350 37270 ft 454 kts 138°
2026-04-23 07:53 52.58925 14.34353 37271 ft 455 kts 138°
2026-04-23 07:53 52.53753 14.40350 37267 ft 455 kts 138°
2026-04-23 07:54 52.48580 14.46332 37276 ft 455 kts 138°
2026-04-23 07:54 52.43403 14.52304 37268 ft 455 kts 138°
2026-04-23 07:55 52.38451 14.58641 37257 ft 446 kts 127°
2026-04-23 07:55 52.34740 14.66546 37259 ft 435 kts 116°
2026-04-23 07:56 52.31410 14.74804 37251 ft 436 kts 116°
2026-04-23 07:56 52.28052 14.83058 37250 ft 436 kts 116°
2026-04-23 07:57 52.24703 14.91250 37250 ft 437 kts 116°
2026-04-23 07:57 52.21323 14.99501 37251 ft 438 kts 116°
2026-04-23 07:58 52.17936 15.07750 37246 ft 438 kts 116°
2026-04-23 07:58 52.14541 15.16008 37243 ft 439 kts 116°
2026-04-23 07:59 52.11134 15.24248 37242 ft 439 kts 116°
2026-04-23 07:59 52.07713 15.32504 37240 ft 440 kts 116°
2026-04-23 08:00 52.04288 15.40745 37240 ft 441 kts 116°
2026-04-23 08:00 52.01408 15.47653 37240 ft 441 kts 116°
2026-04-23 08:01 51.97963 15.55900 37239 ft 442 kts 116°
2026-04-23 08:01 51.94526 15.64079 37239 ft 442 kts 117°
2026-04-23 08:02 51.91030 15.72283 37234 ft 445 kts 121°
2026-04-23 08:02 51.86486 15.79334 37232 ft 462 kts 137°
2026-04-23 08:03 51.81222 15.85417 37228 ft 463 kts 137°
2026-04-23 08:03 51.75988 15.91486 37222 ft 463 kts 137°
2026-04-23 08:04 51.70782 15.97509 37224 ft 464 kts 137°
2026-04-23 08:04 51.65494 16.03603 37230 ft 464 kts 137°
2026-04-23 08:05 51.60269 16.09596 37230 ft 465 kts 137°
2026-04-23 08:05 51.54999 16.15620 37230 ft 465 kts 137°
2026-04-23 08:06 51.49726 16.21642 37228 ft 465 kts 137°
2026-04-23 08:06 51.44448 16.27652 37224 ft 465 kts 137°
2026-04-23 08:07 51.39166 16.33655 37220 ft 465 kts 137°
2026-04-23 08:07 51.33885 16.39638 37213 ft 466 kts 138°
2026-04-23 08:08 51.28592 16.45605 37221 ft 466 kts 138°
2026-04-23 08:08 51.23289 16.51566 37210 ft 466 kts 138°
2026-04-23 08:09 51.17985 16.57510 37207 ft 466 kts 138°
2026-04-23 08:09 51.12669 16.63452 37199 ft 467 kts 138°
2026-04-23 08:10 51.07359 16.69377 37197 ft 466 kts 138°
2026-04-23 08:10 50.99385 16.78250 37195 ft 466 kts 138°
2026-04-23 08:11 50.94065 16.84142 37200 ft 466 kts 138°
2026-04-23 08:11 50.88741 16.90014 37199 ft 466 kts 138°
2026-04-23 08:12 50.83415 16.95880 37198 ft 466 kts 139°
2026-04-23 08:12 50.78125 17.01698 37200 ft 466 kts 139°
2026-04-23 08:13 50.72791 17.07538 37203 ft 467 kts 139°
2026-04-23 08:13 50.67449 17.13364 37199 ft 467 kts 139°
2026-04-23 08:14 50.62106 17.19174 37199 ft 467 kts 139°
2026-04-23 08:14 50.56757 17.24973 37199 ft 467 kts 139°
2026-04-23 08:15 50.51410 17.30777 37199 ft 467 kts 139°
2026-04-23 08:15 50.46059 17.36566 37192 ft 467 kts 139°
2026-04-23 08:16 50.40650 17.42237 37191 ft 471 kts 145°
2026-04-23 08:16 50.34482 17.46013 37183 ft 483 kts 161°
2026-04-23 08:17 50.27945 17.48495 37185 ft 484 kts 161°
2026-04-23 08:17 50.21447 17.50954 37184 ft 484 kts 161°
2026-04-23 08:18 50.14905 17.53444 37182 ft 484 kts 161°
2026-04-23 08:18 50.08364 17.55923 37180 ft 484 kts 161°
2026-04-23 08:19 50.01825 17.58386 37183 ft 483 kts 161°
2026-04-23 08:19 49.95293 17.60842 37184 ft 483 kts 161°
2026-04-23 08:20 49.88768 17.63290 37185 ft 483 kts 162°
2026-04-23 08:20 49.82239 17.65731 37187 ft 482 kts 162°
2026-04-23 08:21 49.75726 17.68162 37189 ft 481 kts 162°
2026-04-23 08:21 49.69216 17.70581 37189 ft 481 kts 162°
2026-04-23 08:22 49.62711 17.72985 37190 ft 480 kts 162°
2026-04-23 08:22 49.56219 17.75387 37190 ft 479 kts 162°
2026-04-23 08:23 49.49782 17.77759 37193 ft 479 kts 162°
2026-04-23 08:23 49.43301 17.80137 37195 ft 478 kts 162°
2026-04-23 08:24 49.36831 17.82517 37196 ft 478 kts 162°
2026-04-23 08:24 49.30362 17.84880 37201 ft 478 kts 162°
2026-04-23 08:25 49.23898 17.87241 37201 ft 477 kts 162°
2026-04-23 08:25 49.17403 17.89613 37199 ft 477 kts 162°
2026-04-23 08:26 49.10957 17.91958 37199 ft 476 kts 162°
2026-04-23 08:26 49.04562 17.94276 37198 ft 475 kts 162°
2026-04-23 08:27 48.97982 17.95652 37195 ft 479 kts 171°
2026-04-23 08:27 48.91348 17.96554 37192 ft 478 kts 171°
2026-04-23 08:28 48.84730 17.97464 37196 ft 478 kts 171°
2026-04-23 08:28 48.78111 17.98384 37202 ft 477 kts 171°
2026-04-23 08:29 48.71510 17.99298 37203 ft 476 kts 171°
2026-04-23 08:29 48.64917 18.00197 37214 ft 475 kts 172°
2026-04-23 08:30 48.58335 18.01100 37223 ft 474 kts 172°
2026-04-23 08:30 48.51809 18.01984 37220 ft 473 kts 172°
2026-04-23 08:31 48.45256 18.02870 37206 ft 472 kts 172°
2026-04-23 08:31 48.38718 18.03753 37199 ft 472 kts 172°
2026-04-23 08:32 48.32270 18.05206 37197 ft 465 kts 159°
2026-04-23 08:32 48.26508 18.09270 37196 ft 454 kts 141°
2026-04-23 08:33 48.21818 18.15421 37181 ft 447 kts 131°
2026-04-23 08:33 48.17323 18.21858 37182 ft 447 kts 132°
2026-04-23 08:34 48.12812 18.28268 37183 ft 447 kts 132°
2026-04-23 08:34 48.08299 18.34668 37177 ft 447 kts 132°
2026-04-23 08:35 48.03779 18.41065 37179 ft 447 kts 132°
2026-04-23 08:35 47.99261 18.47459 37176 ft 448 kts 132°
2026-04-23 08:36 47.94774 18.53784 37175 ft 448 kts 132°
2026-04-23 08:36 47.90545 18.59726 37171 ft 448 kts 132°
2026-04-23 08:37 47.85997 18.66097 37162 ft 449 kts 132°
2026-04-23 08:37 47.81300 18.72239 37153 ft 454 kts 141°
2026-04-23 08:38 47.75628 18.76502 37152 ft 461 kts 153°
2026-04-23 08:38 47.69683 18.80118 37147 ft 462 kts 153°
2026-04-23 08:39 47.63748 18.83746 37151 ft 462 kts 153°
2026-04-23 08:39 47.57801 18.87368 37148 ft 462 kts 153°
2026-04-23 08:40 47.51846 18.90983 37156 ft 463 kts 153°
2026-04-23 08:40 47.45928 18.94565 37149 ft 463 kts 153°
2026-04-23 08:41 47.40835 18.97642 37165 ft 463 kts 153°
2026-04-23 08:41 47.35462 19.00889 37160 ft 462 kts 153°
2026-04-23 08:42 47.29506 19.04469 37153 ft 462 kts 153°
2026-04-23 08:42 47.23560 19.08031 37153 ft 462 kts 153°
2026-04-23 08:43 47.17602 19.11591 37144 ft 461 kts 154°
2026-04-23 08:43 47.11740 19.15077 37125 ft 444 kts 153°
2026-04-23 08:44 47.06056 19.18461 37125 ft 439 kts 153°
2026-04-23 08:44 47.00449 19.21801 37129 ft 433 kts 153°
2026-04-23 08:45 46.94870 19.25117 37129 ft 432 kts 153°
2026-04-23 08:45 46.89296 19.28413 37128 ft 432 kts 153°
2026-04-23 08:46 46.83722 19.31698 37138 ft 432 kts 153°
2026-04-23 08:46 46.78142 19.34981 37142 ft 432 kts 153°
2026-04-23 08:47 46.72566 19.38259 37144 ft 432 kts 153°
2026-04-23 08:47 46.66982 19.41525 37151 ft 432 kts 153°
2026-04-23 08:48 46.61394 19.44790 37151 ft 433 kts 153°
2026-04-23 08:48 46.56749 19.47502 37155 ft 433 kts 153°
2026-04-23 08:49 46.50254 19.51299 37152 ft 433 kts 153°
2026-04-23 08:49 46.44665 19.54549 37149 ft 433 kts 153°
2026-04-23 08:50 46.39977 19.57261 37151 ft 433 kts 153°
2026-04-23 08:50 46.34387 19.60487 37153 ft 433 kts 153°
2026-04-23 08:51 46.28800 19.63710 37149 ft 433 kts 153°
2026-04-23 08:51 46.23197 19.66944 37150 ft 433 kts 153°
2026-04-23 08:52 46.17605 19.70180 37148 ft 432 kts 152°
2026-04-23 08:52 46.12172 19.73841 37158 ft 430 kts 148°
2026-04-23 08:53 46.06847 19.77760 37154 ft 430 kts 148°
2026-04-23 08:53 46.01508 19.81634 37149 ft 430 kts 148°
2026-04-23 08:54 45.96126 19.85411 37150 ft 431 kts 149°
2026-04-23 08:54 45.90729 19.89149 37150 ft 431 kts 149°
2026-04-23 08:55 45.85332 19.92900 37145 ft 431 kts 149°
2026-04-23 08:55 45.79942 19.96660 37152 ft 431 kts 149°
2026-04-23 08:56 45.74546 20.00421 37152 ft 431 kts 149°
2026-04-23 08:56 45.69181 20.04143 37151 ft 431 kts 149°
2026-04-23 08:57 45.63747 20.07903 37152 ft 431 kts 149°
2026-04-23 08:57 45.58338 20.11635 37154 ft 431 kts 149°
2026-04-23 08:58 45.52931 20.15356 37156 ft 431 kts 149°
2026-04-23 08:58 45.47559 20.19042 37153 ft 431 kts 149°
2026-04-23 08:59 45.42121 20.22774 37151 ft 431 kts 149°
2026-04-23 08:59 45.36725 20.26477 37151 ft 430 kts 149°
2026-04-23 09:00 45.31371 20.30141 37160 ft 430 kts 149°
2026-04-23 09:00 45.25982 20.33818 37159 ft 430 kts 149°
2026-04-23 09:01 45.20559 20.37517 37172 ft 429 kts 149°
2026-04-23 09:01 45.15217 20.41150 37176 ft 428 kts 149°
2026-04-23 09:02 45.09802 20.44812 37177 ft 428 kts 149°
2026-04-23 09:02 45.04434 20.48441 37184 ft 428 kts 149°
2026-04-23 09:03 44.99070 20.52078 37176 ft 427 kts 149°
2026-04-23 09:03 44.93703 20.55700 37180 ft 427 kts 149°
2026-04-23 09:04 44.88335 20.59304 37191 ft 427 kts 149°
2026-04-23 09:04 44.82967 20.62901 37185 ft 427 kts 149°
2026-04-23 09:05 44.77607 20.66508 37189 ft 427 kts 149°
2026-04-23 09:05 44.72248 20.70092 37184 ft 426 kts 149°
2026-04-23 09:06 44.66885 20.73664 37183 ft 426 kts 149°
2026-04-23 09:06 44.61565 20.77203 37189 ft 426 kts 149°
2026-04-23 09:07 44.56210 20.80763 37186 ft 425 kts 149°
2026-04-23 09:07 44.50864 20.84312 37181 ft 425 kts 149°
2026-04-23 09:08 44.45515 20.87853 37181 ft 425 kts 149°
2026-04-23 09:08 44.40173 20.91387 37177 ft 425 kts 149°
2026-04-23 09:09 44.34823 20.94906 37178 ft 425 kts 150°
2026-04-23 09:09 44.29472 20.98418 37175 ft 425 kts 150°
2026-04-23 09:10 44.21448 21.03688 37175 ft 425 kts 150°
2026-04-23 09:11 44.16085 21.07193 37173 ft 426 kts 150°
2026-04-23 09:11 44.10719 21.10691 37169 ft 426 kts 150°
2026-04-23 09:12 44.05355 21.14196 37169 ft 426 kts 150°
2026-04-23 09:12 43.99981 21.17696 37172 ft 427 kts 150°
2026-04-23 09:13 43.94598 21.21186 37173 ft 427 kts 150°
2026-04-23 09:13 43.89217 21.24674 37172 ft 427 kts 150°
2026-04-23 09:14 43.83838 21.28163 37165 ft 427 kts 150°
2026-04-23 09:14 43.78450 21.31637 37168 ft 427 kts 150°
2026-04-23 09:15 43.73056 21.35100 37166 ft 427 kts 150°
2026-04-23 09:15 43.67660 21.38565 37167 ft 428 kts 150°
2026-04-23 09:16 43.62262 21.42031 37166 ft 428 kts 150°
2026-04-23 09:16 43.56857 21.45495 37163 ft 428 kts 150°
2026-04-23 09:17 43.51450 21.48955 37156 ft 429 kts 151°
2026-04-23 09:17 43.46036 21.52404 37157 ft 429 kts 151°
2026-04-23 09:18 43.40621 21.55845 37156 ft 429 kts 151°
2026-04-23 09:18 43.35209 21.59286 37154 ft 429 kts 151°
2026-04-23 09:19 43.29795 21.62721 37155 ft 429 kts 152°
2026-04-23 09:19 43.24372 21.66149 37154 ft 429 kts 152°
2026-04-23 09:20 43.18952 21.69571 37152 ft 429 kts 152°
2026-04-23 09:20 43.13525 21.72992 37154 ft 430 kts 152°
2026-04-23 09:21 43.08095 21.76409 37154 ft 430 kts 152°
2026-04-23 09:21 43.02657 21.79824 37149 ft 430 kts 152°
2026-04-23 09:22 42.97212 21.83230 37147 ft 431 kts 153°
2026-04-23 09:22 42.91759 21.86634 37144 ft 431 kts 153°
2026-04-23 09:23 42.86304 21.90036 37138 ft 431 kts 153°
2026-04-23 09:23 42.80838 21.93435 37137 ft 432 kts 153°
2026-04-23 09:24 42.75370 21.96828 37132 ft 433 kts 153°
2026-04-23 09:24 42.69890 22.00235 37126 ft 433 kts 153°
2026-04-23 09:25 42.64397 22.03636 37117 ft 434 kts 153°
2026-04-23 09:25 42.58896 22.07036 37111 ft 435 kts 154°
2026-04-23 09:26 42.53385 22.10431 37112 ft 436 kts 154°
2026-04-23 09:26 42.47852 22.13827 37103 ft 436 kts 154°
2026-04-23 09:27 42.42323 22.17231 37102 ft 437 kts 154°
2026-04-23 09:27 42.36786 22.20634 37096 ft 437 kts 154°
2026-04-23 09:28 42.31193 22.23886 37097 ft 439 kts 161°
2026-04-23 09:28 42.25214 22.25606 37087 ft 440 kts 169°
2026-04-23 09:29 42.19180 22.27021 37084 ft 440 kts 169°
2026-04-23 09:29 42.13144 22.28455 37090 ft 441 kts 169°
2026-04-23 09:30 42.07100 22.29879 37093 ft 441 kts 169°
2026-04-23 09:30 42.01055 22.31296 37093 ft 441 kts 170°
2026-04-23 09:31 41.96034 22.32474 37100 ft 441 kts 170°
2026-04-23 09:31 41.89986 22.33889 37096 ft 441 kts 170°
2026-04-23 09:32 41.83952 22.35305 37100 ft 441 kts 170°
2026-04-23 09:32 41.77889 22.36715 37105 ft 441 kts 170°
2026-04-23 09:33 41.71836 22.38117 37105 ft 441 kts 171°
2026-04-23 09:33 41.65786 22.39520 37111 ft 441 kts 171°
2026-04-23 09:34 41.59738 22.40920 37115 ft 441 kts 171°
2026-04-23 09:34 41.53688 22.42320 37112 ft 441 kts 171°
2026-04-23 09:35 41.47643 22.43710 37114 ft 441 kts 171°
2026-04-23 09:35 41.41593 22.45098 37109 ft 441 kts 171°
2026-04-23 09:36 41.35549 22.46486 37115 ft 441 kts 171°
2026-04-23 09:36 41.29493 22.47879 37111 ft 441 kts 172°
2026-04-23 09:37 41.23441 22.49268 37117 ft 441 kts 172°
2026-04-23 09:37 41.17393 22.50652 37119 ft 441 kts 172°
2026-04-23 09:38 41.11491 22.52795 37119 ft 442 kts 157°
2026-04-23 09:38 41.06034 22.56588 37112 ft 443 kts 153°
2026-04-23 09:39 41.00606 22.60449 37114 ft 443 kts 153°
2026-04-23 09:39 40.95178 22.64298 37111 ft 443 kts 153°
2026-04-23 09:40 40.89781 22.68121 37117 ft 443 kts 153°
2026-04-23 09:40 40.84343 22.71963 37115 ft 443 kts 154°
2026-04-23 09:41 40.78907 22.75810 37115 ft 444 kts 154°
2026-04-23 09:41 40.73462 22.79652 37114 ft 444 kts 154°
2026-04-23 09:42 40.68013 22.83480 37114 ft 444 kts 154°
2026-04-23 09:42 40.62561 22.87304 37110 ft 444 kts 154°
2026-04-23 09:43 40.57106 22.91122 37108 ft 444 kts 154°
2026-04-23 09:43 40.51645 22.94944 37111 ft 445 kts 154°
2026-04-23 09:44 40.46180 22.98745 37112 ft 444 kts 158°
2026-04-23 09:44 40.40458 23.01724 37114 ft 442 kts 162°
2026-04-23 09:45 40.34715 23.04578 37110 ft 442 kts 163°
2026-04-23 09:45 40.28958 23.07436 37111 ft 442 kts 163°
2026-04-23 09:46 40.23246 23.10278 37122 ft 442 kts 163°
2026-04-23 09:46 40.17444 23.13145 37101 ft 443 kts 163°
2026-04-23 09:47 40.11685 23.15995 37102 ft 443 kts 163°
2026-04-23 09:47 40.05923 23.18853 37107 ft 443 kts 163°
2026-04-23 09:48 40.00190 23.21681 37103 ft 443 kts 163°
2026-04-23 09:48 39.94413 23.24513 37104 ft 444 kts 163°
2026-04-23 09:49 39.88635 23.27342 37104 ft 444 kts 163°
2026-04-23 09:49 39.82858 23.30174 37101 ft 443 kts 164°
2026-04-23 09:50 39.77089 23.33001 37102 ft 443 kts 164°
2026-04-23 09:50 39.71281 23.35845 37102 ft 443 kts 164°
2026-04-23 09:51 39.65513 23.38663 37105 ft 443 kts 164°
2026-04-23 09:51 39.59746 23.41469 37104 ft 443 kts 165°
2026-04-23 09:52 39.53980 23.44269 37104 ft 442 kts 165°
2026-04-23 09:52 39.48222 23.47061 37100 ft 442 kts 165°
2026-04-23 09:53 39.42468 23.49844 37095 ft 442 kts 165°
2026-04-23 09:53 39.36748 23.52606 37090 ft 441 kts 165°
2026-04-23 09:54 39.31003 23.55385 37096 ft 441 kts 165°
2026-04-23 09:54 39.25216 23.58172 37091 ft 441 kts 166°
2026-04-23 09:55 39.19468 23.60928 37091 ft 440 kts 166°
2026-04-23 09:55 39.13754 23.63632 37090 ft 443 kts 161°
2026-04-23 09:56 39.08277 23.67393 37092 ft 447 kts 157°
2026-04-23 09:56 39.02814 23.71238 37082 ft 447 kts 157°
2026-04-23 09:57 38.97360 23.75062 37081 ft 447 kts 158°
2026-04-23 09:57 38.91869 23.78887 37084 ft 447 kts 158°
2026-04-23 09:58 38.86393 23.82699 37083 ft 448 kts 158°
2026-04-23 09:58 38.80916 23.86520 37078 ft 448 kts 158°
2026-04-23 09:59 38.75780 23.90095 37082 ft 448 kts 158°
2026-04-23 09:59 38.70407 23.93823 37087 ft 448 kts 158°
2026-04-23 10:00 38.64927 23.97603 37084 ft 448 kts 158°
2026-04-23 10:00 38.59446 24.01386 37080 ft 447 kts 159°
2026-04-23 10:01 38.53987 24.05170 37082 ft 447 kts 158°
2026-04-23 10:01 38.48520 24.08951 37081 ft 447 kts 158°
2026-04-23 10:02 38.43054 24.12711 37076 ft 446 kts 159°
2026-04-23 10:02 38.37582 24.16454 37075 ft 446 kts 159°
2026-04-23 10:03 38.32116 24.20187 37070 ft 445 kts 159°
2026-04-23 10:03 38.26656 24.23931 37066 ft 445 kts 159°
2026-04-23 10:04 38.21206 24.27666 37066 ft 445 kts 159°
2026-04-23 10:04 38.15752 24.31382 37069 ft 445 kts 159°
2026-04-23 10:05 38.10294 24.35089 37072 ft 445 kts 159°
2026-04-23 10:05 38.04818 24.38803 36475 ft 449 kts 159°
2026-04-23 10:05 38.02089 24.40659 36273 ft 440 kts 159°
2026-04-23 10:06 37.99413 24.42486 35945 ft 435 kts 160°
2026-04-23 10:06 37.96757 24.44292 35536 ft 432 kts 160°
2026-04-23 10:06 37.94118 24.46082 35139 ft 429 kts 160°
2026-04-23 10:06 37.91497 24.47852 34741 ft 426 kts 160°
2026-04-23 10:07 37.88885 24.49613 34359 ft 424 kts 161°
2026-04-23 10:07 37.86291 24.51361 33964 ft 421 kts 161°
2026-04-23 10:07 37.83710 24.53102 33515 ft 419 kts 160°
2026-04-23 10:07 37.81141 24.54837 33074 ft 418 kts 160°
2026-04-23 10:08 37.78546 24.56582 32648 ft 433 kts 160°
2026-04-23 10:08 37.75844 24.58383 32210 ft 440 kts 160°
2026-04-23 10:08 37.73157 24.60191 31811 ft 435 kts 159°
2026-04-23 10:09 37.67845 24.63781 30791 ft 431 kts 159°
2026-04-23 10:09 37.65244 24.65676 30297 ft 437 kts 150°
2026-04-23 10:09 37.63020 24.68354 29755 ft 445 kts 136°
2026-04-23 10:09 37.61019 24.71331 29183 ft 445 kts 135°
2026-04-23 10:10 37.59045 24.74330 28623 ft 444 kts 135°
2026-04-23 10:10 37.57079 24.77316 28068 ft 442 kts 135°
2026-04-23 10:10 37.55115 24.80296 27538 ft 441 kts 135°
2026-04-23 10:10 37.53162 24.83259 27006 ft 440 kts 135°
2026-04-23 10:11 37.51210 24.86224 26499 ft 439 kts 135°
2026-04-23 10:11 37.49263 24.89178 25988 ft 438 kts 135°
2026-04-23 10:11 37.47316 24.92130 25490 ft 438 kts 135°
2026-04-23 10:11 37.45271 24.94918 24991 ft 428 kts 147°
2026-04-23 10:12 37.42829 24.96934 24519 ft 413 kts 163°
2026-04-23 10:12 37.40197 24.98308 24048 ft 409 kts 166°
2026-04-23 10:12 37.37557 24.99638 23573 ft 409 kts 166°
2026-04-23 10:12 37.34913 25.00966 23018 ft 409 kts 166°
2026-04-23 10:13 37.32275 25.02291 22464 ft 408 kts 166°
2026-04-23 10:13 37.29640 25.03616 21939 ft 408 kts 166°
2026-04-23 10:13 37.27010 25.04938 21413 ft 407 kts 165°
2026-04-23 10:13 37.24387 25.06257 20898 ft 405 kts 165°
2026-04-23 10:14 37.21776 25.07567 20378 ft 403 kts 165°
2026-04-23 10:14 37.19176 25.08869 19875 ft 401 kts 165°
2026-04-23 10:14 37.16590 25.10162 19387 ft 399 kts 165°
2026-04-23 10:14 37.14014 25.11448 18909 ft 397 kts 165°
2026-04-23 10:15 37.11460 25.12723 18435 ft 394 kts 165°
2026-04-23 10:15 37.09776 25.13564 18094 ft 392 kts 165°
2026-04-23 10:15 37.07249 25.14828 17556 ft 389 kts 165°
2026-04-23 10:15 37.04742 25.16079 17029 ft 387 kts 165°
2026-04-23 10:16 37.02252 25.17316 16514 ft 384 kts 165°
2026-04-23 10:16 36.99774 25.18544 15998 ft 381 kts 165°
2026-04-23 10:16 36.97324 25.19759 15493 ft 378 kts 165°
2026-04-23 10:16 36.94890 25.20974 14986 ft 375 kts 164°
2026-04-23 10:17 36.92479 25.22193 14519 ft 372 kts 164°
2026-04-23 10:17 36.90087 25.23404 14040 ft 369 kts 164°
2026-04-23 10:17 36.87717 25.24601 13531 ft 364 kts 164°
2026-04-23 10:17 36.85418 25.25761 12996 ft 349 kts 164°
2026-04-23 10:18 36.83210 25.26867 12476 ft 336 kts 164°
2026-04-23 10:18 36.81068 25.27928 11961 ft 326 kts 164°
2026-04-23 10:18 36.78993 25.28945 11459 ft 316 kts 164°
2026-04-23 10:18 36.76969 25.29923 10963 ft 308 kts 164°
2026-04-23 10:19 36.74990 25.30871 10542 ft 302 kts 164°
2026-04-23 10:19 36.73033 25.31797 10128 ft 299 kts 164°
2026-04-23 10:19 36.71093 25.32691 9691 ft 296 kts 164°
2026-04-23 10:19 36.69169 25.33568 9243 ft 293 kts 164°
2026-04-23 10:20 36.67259 25.34429 8800 ft 291 kts 164°
2026-04-23 10:20 36.65357 25.35275 8364 ft 289 kts 164°
2026-04-23 10:20 36.63466 25.36095 7931 ft 287 kts 164°
2026-04-23 10:20 36.61582 25.36899 7506 ft 285 kts 164°
2026-04-23 10:21 36.59750 25.37833 7085 ft 282 kts 158°
2026-04-23 10:21 36.58004 25.38884 6673 ft 276 kts 156°
2026-04-23 10:21 36.56272 25.39920 6255 ft 278 kts 157°
2026-04-23 10:21 36.54535 25.40901 5914 ft 277 kts 159°
2026-04-23 10:22 36.52745 25.41853 5603 ft 275 kts 160°
2026-04-23 10:22 36.51002 25.42736 5328 ft 272 kts 160°
2026-04-23 10:22 36.49254 25.43596 5079 ft 269 kts 161°
2026-04-23 10:22 36.47520 25.44432 4832 ft 265 kts 161°
2026-04-23 10:23 36.45814 25.45250 4570 ft 259 kts 161°
2026-04-23 10:23 36.44170 25.46035 4313 ft 247 kts 161°
2026-04-23 10:23 36.42602 25.46780 4057 ft 236 kts 161°
2026-04-23 10:23 36.41102 25.47487 3804 ft 225 kts 161°
2026-04-23 10:24 36.39673 25.48159 3580 ft 213 kts 161°
2026-04-23 10:24 36.38353 25.48927 3791 ft 199 kts 150°
2026-04-23 10:24 36.37150 25.50029 3236 ft 237 kts 131°
2026-04-23 10:24 36.36174 25.51711 2963 ft 236 kts 123°
2026-04-23 10:25 36.35315 25.53358 2984 ft 219 kts 122°
2026-04-23 10:25 36.34522 25.54905 2996 ft 207 kts 122°
2026-04-23 10:25 36.33766 25.56407 3000 ft 204 kts 122°
2026-04-23 10:25 36.33022 25.57902 3031 ft 203 kts 122°
2026-04-23 10:26 36.32281 25.59390 3031 ft 202 kts 122°
2026-04-23 10:26 36.31543 25.60872 2983 ft 203 kts 122°
2026-04-23 10:26 36.30772 25.62322 2803 ft 201 kts 133°
2026-04-23 10:26 36.29615 25.63178 2620 ft 194 kts 171°
2026-04-23 10:27 36.28329 25.63018 2440 ft 184 kts 211°
2026-04-23 10:27 36.27480 25.61914 2261 ft 178 kts 251°
2026-04-23 10:27 36.27461 25.60443 2091 ft 173 kts 292°
2026-04-23 10:27 36.28061 25.59140 1914 ft 175 kts 297°
2026-04-23 10:28 36.28544 25.57768 1787 ft 170 kts 294°
2026-04-23 10:28 36.28999 25.56459 1701 ft 162 kts 295°
2026-04-23 10:28 36.29449 25.55217 1548 ft 154 kts 295°
2026-04-23 10:28 36.29885 25.54028 1371 ft 149 kts 295°
2026-04-23 10:29 36.30321 25.52888 1135 ft 145 kts 302°
2026-04-23 10:29 36.31044 25.52069 1049 ft 142 kts 330°
2026-04-23 10:29 36.31977 25.51650 1126 ft 144 kts 341°
2026-04-23 10:29 36.32941 25.51261 1048 ft 147 kts 337°
2026-04-23 10:30 36.33889 25.50793 668 ft 147 kts 337°
2026-04-23 10:30 36.34767 25.50289 533 ft 133 kts 339°
2026-04-23 10:30 36.35612 25.49901 492 ft 128 kts 343°
2026-04-23 10:30 36.36454 25.49549 357 ft 127 kts 341°
2026-04-23 10:31 36.37273 25.49142 336 ft 127 kts 339°
2026-04-23 10:31 36.38102 25.48769 228 ft 126 kts 339°
2026-04-23 10:31 36.38930 25.48380 97 ft 127 kts 341°
2026-04-23 10:31 36.39693 25.48022 89 ft 98 kts 339°
2026-04-23 10:32 36.40075 25.47846 105 ft 37 kts 340°
2026-04-23 10:32 36.40262 25.47758 113 ft 18 kts 340°
2026-04-23 10:32 36.40378 25.47706 115 ft 18 kts 339°
2026-04-23 10:32 36.40464 25.47623 116 ft 15 kts 276°
2026-04-23 10:33 36.40436 25.47512 117 ft 10 kts 245°
2026-04-23 10:33 36.40420 25.47455 116 ft 0 kts 250°
2026-04-23 10:34 36.40418 25.47449 117 ft 2 kts 251°
2026-04-23 10:34 36.40406 25.47429 116 ft 4 kts 215°
2026-04-23 10:35 36.40369 25.47432 117 ft 7 kts 170°
2026-04-23 10:35 36.40308 25.47456 115 ft 11 kts 161°
2026-04-23 10:35 36.40262 25.47477 113 ft 7 kts 159°
2026-04-23 10:35 36.40229 25.47500 112 ft 2 kts 144°
2026-04-23 10:36 36.40212 25.47505 112 ft 2 kts 176°
2026-04-23 10:36 36.40208 25.47505 111 ft 0 kts 183°
2026-04-23 10:36 36.40195 25.47503 111 ft 4 kts 184°
2026-04-23 10:37 36.40175 25.47493 110 ft 1 kts 209°
2026-04-23 10:37 36.40167 25.47481 109 ft 2 kts 238°
2026-04-23 10:37 36.40166 25.47473 110 ft 1 kts 250°
2026-04-23 10:37 36.40164 25.47467 109 ft 1 kts 247°
2026-04-23 10:38 36.40163 25.47467 109 ft 0 kts 247°